Regional Weather Roundup
Issued by NWS Cleveland, OH

Current Version | Previous Version | Text Only | Print | Product List | Glossary On
Versions: 1 2 3 4 5 6 7 8 9 10 11 12 13 14 15 16 17 18 19 20 21 22 23 24 25 26 27 28 29 30 31 32 33 34 35 36 37 38 39 40 41 42 43 44 45 46 47 48 49 50
000
ASUS41 KCLE 280812
RWRCLE
OHIO REGIONAL WEATHER ROUNDUP
NATIONAL WEATHER SERVICE WILMINGTON, OH
300 AM EST TUE JAN 28 2020

NOTE: "FAIR" INDICATES FEW OR NO CLOUDS BELOW 12,000 FEET WITH NO
SIGNIFICANT WEATHER AND/OR OBSTRUCTIONS TO VISIBILITY.

OHZ001>008-015>018-024>027-034-035-043-044-280900-
   NORTHWEST OHIO

CITY           SKY/WX    TMP DP  RH WIND       PRES   REMARKS
DEFIANCE       CLOUDY    34  27  75 NW7       30.01S WCI  28
FINDLAY        CLOUDY    34  29  82 W7        29.99S WCI  28
TOLEDO EXPRESS CLOUDY    35  27  72 W8        30.00R WCI  29
TOLEDO EXEC    CLOUDY    34  29  82 W6        30.00S WCI  29
LIMA           CLOUDY    33  29  85 W10       30.00S WCI  25
$$

OHZ009>014-019>023-028>033-038-089-280900-
   NORTHEAST OHIO

CITY           SKY/WX    TMP DP  RH WIND       PRES   REMARKS
CLE-HOPKINS    CLOUDY    35  30  82 W10       29.98S WCI  27
CLE-LAKEFRONT  CLOUDY    35  31  85 W14       29.96R WCI  26
CUY CO. ARPT   CLOUDY    33  31  95 W12       29.96S WCI  24
LORAIN-ELYRIA  CLOUDY    34  27  75 W6        29.97S WCI  29
ASHTABULA      CLOUDY    32  30  92 NW5       29.94R WCI  27
AKRON-CANTON   CLOUDY    33  29  85 W7        29.95R WCI  27
WOOSTER        CLOUDY    32  30  92 W8        29.96S WCI  25
MANSFIELD      CLOUDY    32  31  96 W8        29.96S FOG     WCI  25
YOUNGSTOWN     CLOUDY    33  29  85 W8        29.92R WCI  26
$$

OHZ042-051>053-060>062-070>072-077>081-280900-
  SOUTHWEST OHIO

CITY           SKY/WX    TMP DP  RH WIND       PRES   REMARKS
CINC-COVINGTON CLOUDY    33  28  81 NW3       30.04R
CINC-LUNKEN    CLOUDY    34  30  85 NW5       30.07R WCI  30
HAMILTON       CLOUDY    33  30  88 CALM      30.06R
DAYTON         CLOUDY    33  30  88 W6        30.03R FOG     WCI  28
WRIGHT-PAT AFB CLOUDY    33  29  84 W5        30.03R WCI  29
DAYTON GENERAL CLOUDY    33  29  85 NW5       30.03R FOG     WCI  29
WILMINGTON     CLOUDY    32  29  88 NW8       30.02R WCI  25
$$

OHZ036-037-039>041-045>050-054>059-063>069-073>076-082>088-280900-
  CENTRAL AND SOUTHEAST OHIO

CITY           SKY/WX    TMP DP  RH WIND       PRES   REMARKS
COLUMBUS       CLOUDY    33  29  85 NW7       30.01R WCI  27
OSU AIRPORT    CLOUDY    33  28  81 NW6       30.00S WCI  28
BOLTON FIELD   CLOUDY    32  31  95 NW5       30.01S FOG     WCI  28
RICKENBACK AFB CLOUDY    32  30  92 NW3       30.01S FOG
NEWARK         CLOUDY    34  29  82 NW10      30.00R WCI  26
MARION         CLOUDY    32  28  85 NW8       30.00R WCI  25
LANCASTER      CLOUDY    33  29  85 CALM      30.01R
ZANESVILLE     CLOUDY    34  29  82 W9        29.99R WCI  27
NEW PHILLY     CLOUDY    34  29  82 W5        29.97S WCI  30
$$



USA.gov is the U.S. government's official web portal to all federal, state and local government web resources and services.